Location: Amarillo Post Office Jordan Station
(35.1907°N, 101.9342°W)
Time: 18:08:30
(UTC+00:00)

Lacrosse 5 rocket - Pass Details

Date: 24 January 2021
Orbit: 465 x 630 km, 57.0° (Epoch: 02 March)

Event Time Altitude Azimuth Distance (km) Brightness Sun altitude
Exits shadow 12:53:45 15° 315° (NW) 1,413 2.9 -12.1°
Maximum altitude 12:56:50 71° 232° (SW) 515 1.0 -11.5°
Drops below altitude 10° 13:00:28 10° 148° (SSE) 1,633 4.5 -10.7°
Sets 13:02:34 0° 146° (SE) 2,493 5.5 -10.3°
